Regional Weather Roundup
Issued by NWS Upton, NY

Home | Current Version | Previous Version | Text Only | Print | Product List | Glossary On
Versions: 1 2 3 4 5 6 7 8 9 10 11 12 13 14 15 16 17 18 19 20 21 22 23 24 25 26 27
000
ASUS41 KOKX 270609
RWROKX

REGIONAL WEATHER ROUNDUP
NATIONAL WEATHER SERVICE NEW YORK NY
200 AM EDT TUE JUN 27 2017

NOTE: "FAIR" INDICATES FEW OR NO CLOUDS BELOW 12,000 FEET WITH NO
SIGNIFICANT WEATHER AND/OR OBSTRUCTIONS TO VISIBILITY.

NYZ071-072-176-178-NJZ106-104-270700-
NEW YORK CITY METRO AREA

CITY           SKY/WX    TMP DP  RH WIND       PRES   REMARKS
Central Park   MOCLDY    71  51  49 W10G16    30.02R
Bronx Bot Gard   N/A     72  46  40 W15       29.99S
LaGuardia APRT CLOUDY    73  51  46 SW8       29.96F
Kennedy INTL   MOCLDY    67  57  70 SW7       29.98F
Breezy Point     N/A     66 N/A N/A SW8         N/A
Newark/Liberty MOCLDY    69  50  50 NW10      29.99R
Teterboro      CLOUDY    68  50  52 NW10      29.98R
$$

NYZ177-179-078>081-270700-
LONG ISLAND NEW YORK

CITY           SKY/WX    TMP DP  RH WIND       PRES   REMARKS
Jones Beach      N/A     64 N/A N/A MISG        N/A
Matinecock PT  NOT AVBL
Farmingdale    NOT AVBL
MacArthur/ISP  CLEAR     65  62  90 SW3       29.98F
Shirley        CLEAR     65  64  97 S6        30.00S
Mt Sinai Harb    N/A    N/A N/A N/A S6          N/A
Westhampton    CLEAR     66  61  84 SW5       30.01S
East Hampton   FAIR      64  62  93 SW3       29.99S
Montauk        NOT AVBL
$$

NYZ052-065-067-270700-
HUDSON VALLEY

CITY           SKY/WX    TMP DP  RH WIND       PRES   REMARKS
White Plains   MOCLDY    62  59  90 W6        29.98S
Larchmont Harb   N/A     63 N/A N/A MISG        N/A
Croton O-T Hud   N/A     68 N/A N/A N2          N/A
Newburgh       MOCLDY    66  52  59 CALM      30.03R
Montgomery     LGT RAIN  61  55  81 SE3       30.03R
Poughkeepsie   PTCLDY    60  53  77 CALM      30.00R
Albany         LGT RAIN  58  55  90 CALM      30.00F
$$

NJZ001-105-106-008-010-013-015-019>022-104-270700-
NEW JERSEY

CITY           SKY/WX    TMP DP  RH WIND       PRES   REMARKS
Newark/Liberty MOCLDY    69  50  50 NW10      29.99R
Teterboro      CLOUDY    68  50  52 NW10      29.98R
Caldwell       CLOUDY    65  52  62 CALM      30.02R
Somerville     CLOUDY    61  56  83 CALM      29.99S
Linden         MOCLDY    67  49  52 NW7       30.00R
Perth Amboy      N/A     68 N/A N/A W10         N/A
Sussex         RAIN      60  54  80 SE6       30.03S
Andover          N/A     60  54  80 CALM      30.04R
Trenton        CLOUDY    65  52  62 N5        29.99S
Millville      CLEAR     64  59  83 SW3       29.98F
Atlantic City  CLEAR     67  60  78 S8        29.99F
Wrightstown    CLOUDY    61  56  83 CALM      29.99F
Toms River     CLEAR     54  50  86 CALM      29.99F
Belmar         CLEAR     63  52  67 S3        30.00S
$$

PAZ047>061-062-071-270700-
EASTERN PENNSYLVANIA

CITY           SKY/WX    TMP DP  RH WIND       PRES   REMARKS
Philadelphia   MOCLDY    71  54  54 N7        29.99R
Allentown      CLOUDY    62  55  77 CALM      29.99F
Scranton       CLOUDY    57  54  89 SE3       30.00F
$$

CTZ002-004>006-009-010-012-RIZ004-006-007-MAZ004-011-015-270700-
SOUTHERN NEW ENGLAND
 IN CT

CITY           SKY/WX    TMP DP  RH WIND       PRES   REMARKS
Bradley INTL   CLEAR     58  55  90 N3        30.01R
Hartford       CLEAR     62  55  77 N7        29.99R
Danbury        PTCLDY    61  56  83 SW5       30.01R
Wtrbury/Oxford CLEAR     55  52  88 CALM      29.99F
Bridgeport     CLEAR     67  62  84 CALM      29.97F
Meriden        PTCLDY    56  54  93 CALM      29.98F
New Haven      CLEAR     60  57  89 CALM      29.98F
Chester        FAIR      63  61  94 SW3       29.99S
Groton         CLEAR     58  56  93 CALM      29.98F
Wilimantic     CLEAR     60  56  86 NE3       30.00S

 IN RI

CITY           SKY/WX    TMP DP  RH WIND       PRES   REMARKS
Providence     CLEAR     60  58  92 NE3       30.00F
Block Island   CLEAR     65  61  87 SW7       30.00F
Westerly       CLEAR     60  57  89 CALM      30.00F
 IN MA

CITY           SKY/WX    TMP DP  RH WIND       PRES   REMARKS
Boston         CLEAR     59  54  83 S3        29.98F
Worcester      CLEAR     56  51  84 W3        30.00F
Westfield      CLEAR     57  55  93 N6          N/A
Provincetown   PTCLDY    60  56  86 SW3       30.01F
Nantucket      CLEAR     60  60 100 SW3       30.02S
$$

ANZ330-335-338-340-345-350-353-355-270700-
COASTAL MARINE OBSERVATIONS


STATION/POSITION TIME  SKY/WX   TEMP    WIND        PRES    VSBY  WAVE
                                AIR SEA DIR/SP/G                  HT/PER
                 (UTC)          (F)     (DEG/KT/KT) (MB)    (MI)  (FT/S)
NY HARB ENTRANCE 0450            69 67  230/ 10/ 12 1015.2          2/ 4
20 S FIRE ISLAND 0550            70 70  230/ 12/ 14 1015.1          3/ 4
GREAT SOUTH BAY  0515            71 75  240/ 14/ 16   N/A
23 SSW MONTAUK P 0450            67 65              1016.2          3/ 7
15 E BARNEGAT LI 0530               65                N/A           2/ 8
HUDSON CANYON    0450            69 68  180/  6/  6 1016.1          2/ 9
KINGS POINT      0536            67 65  190/  7/ 10 1014.9
EXECUTION ROCKS  0545            65      30/  2/  2   N/A
CENTRAL LI SOUND 0500            69     210/ 12/ 14   N/A           1
EASTERN LI SOUND NOT AVBL
ROBBINS REEF     0536                   240/  8/  9 1015.6
$$


>>>>>>>>>>>>>>>>>>>>>>>>>>>> KEY <<<<<<<<<<<<<<<<<<<<<<<<<<<
>                                                          <
>     SKY/WX - Sky Condition/Present Weather               <
>     TMP    - Temperature in Fahrenheit                   <
>     DP     - Dew Point in Fahrenheit                     <
>     RH     - Relative Humidity in Percent                <
>     WIND   - Direction (from) and Speed in MPH           <
>     PRES   - Mean Sea Level Pressure (inches of Hg)      <
>     WCI    - Wind Chill Index                            <
>     VSB    - VISIBILITY IN MILES                         <
>     HX     - HEAT INDEX                                  <
>     TC     - TEMPERATURE IN CELSIUS                      <
>     VRB    - VARIABLE WIND DIRECTION                     <
>                                                          <
>>>>>>>>>>>>>>>>>>>>>>>>>>>> KEY <<<<<<<<<<<<<<<<<<<<<<<<<<<




USA.gov is the U.S. government's official web portal to all federal, state and local government web resources and services.